Details for UPS at EDDK




Go Back


Latest METAR
Local Time

EDDK 220850Z 22007KT 180V270 9999 FEW030 SCT180 BKN260 14/07 Q1021 NOSIG
22/09/2018, 10:57:25

Description
Results
UPS Logo
Number of Pilots based at EDDK
0 Pilots Based here
Number of UPS Flights Departed from EDDK
0 Flights Departed
Number of UPS Flights Arrived at EDDK
0 Flights Arrived
Number of UPS Schedules Departing from EDDK
94 Schedules
Number of UPS Schedules Arriving at EDDK
101 Schedules
Number of UPS Schedules Departing from EDDK availible today
9 Schedules Today
Number of UPS Schedules Arriving at EDDK availible today
3 Schedules Today
Average Landing Rate at EDDK
-129 fpm
UPS Average Landing Rate at EDDK
0 fpm
Total Fuel Purchased at EDDK by UPS
0.00 kgs / 0.00 lbs

Pilots Based at EDDK


Pilot ID
Pilot Name
Pilot Rank
No. of Flights
No. of Flying Hours
There are no pilots assigned to this hub!   Will you be the first?
Content